Time,TemperatureF,DewpointF,PressureIn,WindDirection,WindDirectionDegrees,WindSpeedMPH,WindSpeedGustMPH,Humidity,HourlyPrecipIn,Conditions,Clouds,dailyrainin,SolarRadiationWatts/m^2,SoftwareType,DateUTC
2013-02-11 00:06:00,7.2,3.0,29.88,ESE,117,17.0,22.0,82,0.00,,,0.00,0,weatherlink.com 1.10,2013-02-11 07:06:00,
2013-02-11 00:21:00,6.6,2.0,29.88,ESE,107,13.0,19.0,81,0.00,,,0.00,0,weatherlink.com 1.10,2013-02-11 07:21:00,
2013-02-11 00:36:00,6.0,1.0,29.88,SE,130,13.0,22.0,81,0.00,,,0.00,0,weatherlink.com 1.10,2013-02-11 07:36:00,
2013-02-11 00:51:00,5.8,1.0,29.89,ESE,113,10.0,23.0,81,0.00,,,0.00,0,weatherlink.com 1.10,2013-02-11 07:51:00,
2013-02-11 01:06:00,5.7,1.0,29.89,ESE,123,8.0,17.0,81,0.00,,,0.00,0,weatherlink.com 1.10,2013-02-11 08:06:00,
2013-02-11 01:21:00,5.1,1.0,29.88,East,91,19.0,24.0,81,0.00,,,0.00,0,weatherlink.com 1.10,2013-02-11 08:21:00,
2013-02-11 01:36:00,4.7,0.0,29.89,ESE,115,16.0,22.0,81,0.00,,,0.00,0,weatherlink.com 1.10,2013-02-11 08:36:00,
2013-02-11 01:52:00,4.1,-1.0,29.89,ESE,109,9.0,19.0,81,0.00,,,0.00,0,weatherlink.com 1.10,2013-02-11 08:52:00,
2013-02-11 02:07:00,3.7,-1.0,29.89,ESE,105,13.0,19.0,81,0.00,,,0.00,0,weatherlink.com 1.10,2013-02-11 09:07:00,
2013-02-11 02:22:00,3.3,-1.0,29.89,East,90,15.0,20.0,81,0.00,,,0.00,0,weatherlink.com 1.10,2013-02-11 09:22:00,
2013-02-11 02:37:00,3.3,-1.0,29.89,ESE,120,9.0,23.0,82,0.00,,,0.00,0,weatherlink.com 1.10,2013-02-11 09:37:00,
2013-02-11 02:52:00,3.1,-1.0,29.88,ESE,104,12.0,19.0,82,0.00,,,0.00,0,weatherlink.com 1.10,2013-02-11 09:52:00,
2013-02-11 03:07:00,2.9,-1.0,29.88,ESE,107,10.0,22.0,82,0.00,,,0.00,0,weatherlink.com 1.10,2013-02-11 10:07:00,
2013-02-11 03:22:00,2.7,-2.0,29.87,SSE,152,18.0,23.0,81,0.00,,,0.00,0,weatherlink.com 1.10,2013-02-11 10:22:00,
2013-02-11 03:37:00,2.7,-2.0,29.88,SE,146,17.0,23.0,82,0.00,,,0.00,0,weatherlink.com 1.10,2013-02-11 10:37:00,
2013-02-11 03:52:00,2.8,-2.0,29.87,ESE,103,15.0,25.0,82,0.00,,,0.00,0,weatherlink.com 1.10,2013-02-11 10:52:00,
2013-02-11 04:07:00,2.8,-2.0,29.87,ESE,113,14.0,23.0,82,0.00,,,0.00,0,weatherlink.com 1.10,2013-02-11 11:07:00,
2013-02-11 04:22:00,2.7,-2.0,29.87,ESE,115,11.0,18.0,81,0.00,,,0.00,0,weatherlink.com 1.10,2013-02-11 11:22:00,
2013-02-11 04:37:00,2.9,-1.0,29.87,SE,144,14.0,19.0,82,0.00,,,0.00,0,weatherlink.com 1.10,2013-02-11 11:37:00,
2013-02-11 04:52:00,3.0,-2.0,29.87,SE,128,7.0,19.0,81,0.00,,,0.00,0,weatherlink.com 1.10,2013-02-11 11:52:00,
2013-02-11 05:07:00,2.8,-2.0,29.88,East,88,10.0,19.0,81,0.00,,,0.00,0,weatherlink.com 1.10,2013-02-11 12:07:00,
2013-02-11 05:23:00,2.6,-2.0,29.87,East,98,13.0,17.0,80,0.00,,,0.00,0,weatherlink.com 1.10,2013-02-11 12:23:00,
2013-02-11 05:38:00,2.3,-3.0,29.88,ESE,108,8.0,16.0,80,0.00,,,0.00,0,weatherlink.com 1.10,2013-02-11 12:38:00,
2013-02-11 05:53:00,2.4,-2.0,29.88,SE,128,9.0,13.0,80,0.00,,,0.00,0,weatherlink.com 1.10,2013-02-11 12:53:00,
2013-02-11 06:08:00,2.8,-2.0,29.89,ESE,105,7.0,16.0,80,0.00,,,0.00,0,weatherlink.com 1.10,2013-02-11 13:08:00,
2013-02-11 06:23:00,2.8,-2.0,29.89,East,94,7.0,14.0,80,0.00,,,0.00,0,weatherlink.com 1.10,2013-02-11 13:23:00,
2013-02-11 06:38:00,2.4,-2.0,29.90,East,87,10.0,14.0,80,0.00,,,0.00,0,weatherlink.com 1.10,2013-02-11 13:38:00,
2013-02-11 06:53:00,1.9,-3.0,29.91,ESE,111,9.0,14.0,80,0.00,,,0.00,0,weatherlink.com 1.10,2013-02-11 13:53:00,
2013-02-11 07:08:00,1.9,-3.0,29.91,SE,130,5.0,11.0,80,0.00,,,0.00,9,weatherlink.com 1.10,2013-02-11 14:08:00,
2013-02-11 07:23:00,2.3,-3.0,29.92,SE,124,3.0,11.0,80,0.00,,,0.00,28,weatherlink.com 1.10,2013-02-11 14:23:00,
2013-02-11 07:38:00,2.8,-2.0,29.92,SE,126,3.0,7.0,80,0.00,,,0.00,58,weatherlink.com 1.10,2013-02-11 14:38:00,
2013-02-11 07:53:00,3.1,-2.0,29.93,ESE,111,5.0,9.0,79,0.00,,,0.00,58,weatherlink.com 1.10,2013-02-11 14:53:00,
2013-02-11 08:08:00,3.2,-2.0,29.94,East,98,2.0,7.0,79,0.00,,,0.00,83,weatherlink.com 1.10,2013-02-11 15:08:00,
2013-02-11 08:23:00,3.3,-2.0,29.93,ESE,115,5.0,5.0,80,0.00,,,0.00,70,weatherlink.com 1.10,2013-02-11 15:23:00,
2013-02-11 08:38:00,3.8,-1.0,29.94,ESE,111,3.0,7.0,80,0.00,,,0.00,169,weatherlink.com 1.10,2013-02-11 15:38:00,
2013-02-11 08:54:00,4.2,-1.0,29.94,East,89,5.0,9.0,79,0.00,,,0.00,185,weatherlink.com 1.10,2013-02-11 15:54:00,
2013-02-11 09:09:00,4.8,-1.0,29.95,ESE,102,4.0,8.0,78,0.00,,,0.00,211,weatherlink.com 1.10,2013-02-11 16:09:00,
2013-02-11 09:24:00,5.0,0.0,29.94,East,97,5.0,7.0,78,0.00,,,0.00,190,weatherlink.com 1.10,2013-02-11 16:24:00,
2013-02-11 09:39:00,5.3,0.0,29.94,ESE,107,3.0,6.0,79,0.00,,,0.00,188,weatherlink.com 1.10,2013-02-11 16:39:00,
2013-02-11 09:54:00,6.0,1.0,29.94,East,88,2.0,6.0,79,0.00,,,0.00,294,weatherlink.com 1.10,2013-02-11 16:54:00,
2013-02-11 10:09:00,6.7,1.0,29.94,East,82,1.0,5.0,78,0.00,,,0.00,323,weatherlink.com 1.10,2013-02-11 17:09:00,
2013-02-11 10:24:00,8.1,3.0,29.94,East,82,0.0,2.0,79,0.00,,,0.00,313,weatherlink.com 1.10,2013-02-11 17:24:00,
2013-02-11 10:39:00,10.5,5.0,29.95,WNW,299,1.0,3.0,77,0.00,,,0.00,332,weatherlink.com 1.10,2013-02-11 17:39:00,
2013-02-11 10:54:00,11.5,5.0,29.95,West,277,1.0,4.0,75,0.00,,,0.00,334,weatherlink.com 1.10,2013-02-11 17:54:00,
2013-02-11 11:09:00,12.5,6.0,29.95,NW,326,1.0,3.0,74,0.00,,,0.00,545,weatherlink.com 1.10,2013-02-11 18:09:00,
2013-02-11 11:24:00,13.1,6.0,29.95,WNW,286,2.0,4.0,72,0.00,,,0.00,432,weatherlink.com 1.10,2013-02-11 18:24:00,
2013-02-11 11:39:00,12.3,4.0,29.95,West,273,2.0,4.0,69,0.00,,,0.00,281,weatherlink.com 1.10,2013-02-11 18:39:00,
2013-02-11 11:54:00,11.4,4.0,29.95,West,262,2.0,4.0,72,0.00,,,0.00,278,weatherlink.com 1.10,2013-02-11 18:54:00,
2013-02-11 12:10:00,11.2,4.0,29.94,ENE,74,3.0,4.0,71,0.00,,,0.00,397,weatherlink.com 1.10,2013-02-11 19:10:00,
2013-02-11 12:25:00,9.2,3.0,29.94,ENE,76,0.0,3.0,75,0.00,,,0.00,264,weatherlink.com 1.10,2013-02-11 19:25:00,
2013-02-11 12:40:00,10.4,5.0,29.93,SSE,156,1.0,3.0,78,0.00,,,0.00,213,weatherlink.com 1.10,2013-02-11 19:40:00,
2013-02-11 12:55:00,11.4,6.0,29.93,WNW,301,0.0,2.0,77,0.02,,,0.02,193,weatherlink.com 1.10,2013-02-11 19:55:00,
2013-02-11 13:10:00,12.5,6.0,29.92,WNW,303,0.0,3.0,75,0.02,,,0.02,156,weatherlink.com 1.10,2013-02-11 20:10:00,
2013-02-11 13:25:00,12.0,5.0,29.92,SSE,159,2.0,4.0,74,0.02,,,0.02,174,weatherlink.com 1.10,2013-02-11 20:25:00,
2013-02-11 13:40:00,13.7,8.0,29.92,SSE,149,2.0,4.0,77,0.03,,,0.03,174,weatherlink.com 1.10,2013-02-11 20:40:00,
2013-02-11 13:55:00,16.7,9.0,29.92,West,268,2.0,6.0,73,0.01,,,0.03,199,weatherlink.com 1.10,2013-02-11 20:55:00,
2013-02-11 14:10:00,18.2,9.0,29.92,WSW,258,1.0,6.0,68,0.01,,,0.03,334,weatherlink.com 1.10,2013-02-11 21:10:00,
2013-02-11 14:25:00,17.0,8.0,29.92,West,269,2.0,5.0,67,0.01,,,0.03,178,weatherlink.com 1.10,2013-02-11 21:25:00,
2013-02-11 14:40:00,15.2,7.0,29.93,West,263,0.0,5.0,69,0.00,,,0.03,141,weatherlink.com 1.10,2013-02-11 21:40:00,
2013-02-11 14:55:00,14.5,6.0,29.93,SSW,198,1.0,2.0,69,0.00,,,0.03,153,weatherlink.com 1.10,2013-02-11 21:55:00,
2013-02-11 15:10:00,14.5,6.0,29.93,SSW,206,1.0,3.0,70,0.00,,,0.03,151,weatherlink.com 1.10,2013-02-11 22:10:00,
2013-02-11 15:25:00,15.9,8.0,29.94,West,266,0.0,4.0,72,0.00,,,0.03,111,weatherlink.com 1.10,2013-02-11 22:25:00,
2013-02-11 15:41:00,16.4,7.0,29.94,SSW,198,0.0,3.0,66,0.00,,,0.03,104,weatherlink.com 1.10,2013-02-11 22:41:00,
2013-02-11 15:56:00,15.6,7.0,29.95,West,271,0.0,3.0,69,0.00,,,0.03,102,weatherlink.com 1.10,2013-02-11 22:56:00,
2013-02-11 16:11:00,15.7,7.0,29.95,WSW,252,1.0,5.0,68,0.00,,,0.03,39,weatherlink.com 1.10,2013-02-11 23:11:00,
2013-02-11 16:26:00,14.9,6.0,29.96,West,277,1.0,4.0,67,0.00,,,0.03,30,weatherlink.com 1.10,2013-02-11 23:26:00,
2013-02-11 16:41:00,14.8,5.0,29.96,West,263,0.0,4.0,65,0.00,,,0.03,37,weatherlink.com 1.10,2013-02-11 23:41:00,
2013-02-11 16:56:00,13.4,3.0,29.96,West,259,0.0,4.0,64,0.00,,,0.03,21,weatherlink.com 1.10,2013-02-11 23:56:00,
2013-02-11 17:11:00,12.4,3.0,29.97,West,270,0.0,4.0,67,0.00,,,0.03,16,weatherlink.com 1.10,2013-02-12 00:11:00,
2013-02-11 17:26:00,11.6,3.0,29.98,West,270,0.0,3.0,68,0.00,,,0.03,9,weatherlink.com 1.10,2013-02-12 00:26:00,
2013-02-11 17:41:00,10.7,2.0,29.98,West,270,0.0,2.0,68,0.00,,,0.03,0,weatherlink.com 1.10,2013-02-12 00:41:00,
2013-02-11 17:56:00,9.4,1.0,29.99,SW,214,0.0,2.0,68,0.00,,,0.03,0,weatherlink.com 1.10,2013-02-12 00:56:00,
2013-02-11 18:11:00,8.4,1.0,30.00,WSW,246,0.0,2.0,71,0.00,,,0.03,0,weatherlink.com 1.10,2013-02-12 01:11:00,
2013-02-11 18:26:00,8.2,1.0,30.00,West,259,2.0,3.0,72,0.00,,,0.03,0,weatherlink.com 1.10,2013-02-12 01:26:00,
2013-02-11 18:41:00,8.2,1.0,30.01,West,269,0.0,3.0,72,0.00,,,0.03,0,weatherlink.com 1.10,2013-02-12 01:41:00,
2013-02-11 18:57:00,8.1,1.0,30.01,WSW,257,0.0,3.0,74,0.00,,,0.03,0,weatherlink.com 1.10,2013-02-12 01:57:00,
2013-02-11 19:12:00,8.1,1.0,30.02,West,261,0.0,4.0,74,0.00,,,0.03,0,weatherlink.com 1.10,2013-02-12 02:12:00,
2013-02-11 19:27:00,7.6,1.0,30.02,WSW,257,1.0,3.0,74,0.00,,,0.03,0,weatherlink.com 1.10,2013-02-12 02:27:00,
2013-02-11 19:42:00,7.1,0.0,30.03,West,271,0.0,2.0,74,0.00,,,0.03,0,weatherlink.com 1.10,2013-02-12 02:42:00,
2013-02-11 19:57:00,6.9,1.0,30.04,West,276,0.0,3.0,76,0.00,,,0.03,0,weatherlink.com 1.10,2013-02-12 02:57:00,
2013-02-11 20:12:00,7.4,1.0,30.05,West,261,1.0,5.0,76,0.00,,,0.03,0,weatherlink.com 1.10,2013-02-12 03:12:00,
2013-02-11 20:27:00,7.2,1.0,30.05,West,262,0.0,3.0,76,0.00,,,0.03,0,weatherlink.com 1.10,2013-02-12 03:27:00,
2013-02-11 20:42:00,6.8,1.0,30.05,West,268,0.0,3.0,76,0.00,,,0.03,0,weatherlink.com 1.10,2013-02-12 03:42:00,
2013-02-11 20:57:00,6.6,1.0,30.06,West,267,1.0,3.0,77,0.00,,,0.03,0,weatherlink.com 1.10,2013-02-12 03:57:00,
2013-02-11 21:12:00,6.4,1.0,30.06,West,267,0.0,1.0,77,0.00,,,0.03,0,weatherlink.com 1.10,2013-02-12 04:12:00,
2013-02-11 21:27:00,6.5,1.0,30.06,West,275,1.0,1.0,76,0.00,,,0.03,0,weatherlink.com 1.10,2013-02-12 04:27:00,
2013-02-11 21:42:00,6.3,0.0,30.06,West,275,0.0,1.0,75,0.00,,,0.03,0,weatherlink.com 1.10,2013-02-12 04:42:00,
2013-02-11 21:57:00,5.9,0.0,30.06,West,275,0.0,0.0,75,0.00,,,0.03,0,weatherlink.com 1.10,2013-02-12 04:57:00,
2013-02-11 22:12:00,5.8,-1.0,30.06,West,275,0.0,3.0,74,0.00,,,0.03,0,weatherlink.com 1.10,2013-02-12 05:12:00,
2013-02-11 22:28:00,5.6,-2.0,30.06,West,270,0.0,1.0,72,0.00,,,0.03,0,weatherlink.com 1.10,2013-02-12 05:28:00,
2013-02-11 22:43:00,4.2,-3.0,30.07,West,270,0.0,0.0,71,0.00,,,0.03,0,weatherlink.com 1.10,2013-02-12 05:43:00,
2013-02-11 22:58:00,3.6,-3.0,30.06,West,270,0.0,0.0,74,0.00,,,0.03,0,weatherlink.com 1.10,2013-02-12 05:58:00,
2013-02-11 23:13:00,3.2,-3.0,30.06,West,270,0.0,0.0,74,0.00,,,0.03,0,weatherlink.com 1.10,2013-02-12 06:13:00,
2013-02-11 23:28:00,2.2,-4.0,30.06,West,270,0.0,1.0,74,0.00,,,0.03,0,weatherlink.com 1.10,2013-02-12 06:28:00,
2013-02-11 23:43:00,2.1,-4.0,30.07,West,270,0.0,0.0,77,0.00,,,0.03,0,weatherlink.com 1.10,2013-02-12 06:43:00,
2013-02-11 23:58:00,2.2,-4.0,30.08,West,270,0.0,0.0,75,0.00,,,0.03,0,weatherlink.com 1.10,2013-02-12 06:58:00,